Hourly Data Report for March 15, 2012

All times are specified in Local Standard Time (LST). Add 1 hour to adjust for Daylight Saving Time where and when it is observed.

HALIFAX STANFIELD INT'L A
NOVA SCOTIA

44°52'48.060" N
63°30'00.050" W
145.40 m
8202250
71395
YHZ

Download Data

Hourly Data (March 2012)
Hourly Data Report for March 15, 2012
TIME Temp Definition
°C
Dew Point Definition
°C
Rel Hum Definition
%
Wind Dir Definition
10's deg

Wind Spd Definition
km/h
Visibility Definition
km
Stn Press Definition
kPa
Hmdx Definition


Wind Chill Definition


Weather Definition


00:00 -1.1 -1.9 94 6 17 3.2 100.48   -6 Snow Grains
01:00 -1.2 -1.9 95 6 15 3.2 100.47   -6 Freezing Drizzle,Snow Grains
02:00 -1.2 -2.1 94 5 19 3.2 100.43   -7 Freezing Drizzle,Snow Grains
03:00 -1.6 -2.3 95 4 11 2.0 100.39   -5 Snow
04:00 -1.6 -2.3 95 2 9 2.0 100.37   -5 Snow
05:00 -1.5 -2.2 95 3 7 2.0 100.40   -4 Snow
06:00 -1.6 -2.3 95 3 9 2.4 100.40   -5 Snow
07:00 -1.5 -2.2 95 2 13 2.0 100.43   -6 Snow
08:00 -1.5 -2.1 96 1 15 1.6 100.46   -6 Snow,Fog
09:00 -1.3 -1.8 96 1 13 2.0 100.48   -6 Snow,Fog
10:00 -1.4 -2.0 96 1 11 1.2 100.51   -5 Snow,Fog
11:00 -1.0 -1.6 96 1 15 1.2 100.49   -6 Snow,Fog
12:00 -0.8 -1.5 95 1 15 1.6 100.47   -5 Snow,Fog
13:00 -1.2 -1.8 96 1 13 2.4 100.44   -5 Snow,Fog
14:00 -1.2 -1.8 96 1 17 2.0 100.43   -6 Freezing Drizzle,Snow,Fog
15:00 -1.2 -1.8 96 1 17 4.0 100.42   -6 Freezing Drizzle,Fog
16:00 -1.2 -1.9 95 1 19 2.4 100.43   -7 Freezing Drizzle,Fog
17:00 -1.2 -2.0 94 1 15 2.4 100.45   -6 Freezing Drizzle,Fog
18:00 -1.3 -1.9 96 36 15 2.0 100.52   -6 Freezing Drizzle,Fog
19:00 -1.7 -2.5 94 35 17 3.2 100.58   -7 Freezing Drizzle,Fog
20:00 -1.9 -2.5 96 36 15 4.8 100.60   -7 Freezing Drizzle,Fog
21:00 -2.0 -2.8 94 36 11 24.1 100.61   -6 Freezing Drizzle
22:00 -2.2 -3.1 94 36 13 24.1 100.59   -7 Cloudy
23:00 -2.3 -3.2 94 36 11 24.1 100.55   -6 Cloudy

Notes on Data Quality.

Legend

  • E = Estimated
  • M = Missing
  • NA = Not Available
Date modified: